[[{"header":{"parameterUnit":"m.s-1","parameterCategory":1,"la1":30.2991,"la2":30.254,"lo1":-89.0895,"lo2":-89.0444,"dy":0.0017,"dx":0.0017,"nx":28,"ny":28,"refTime":"2023-08-15T21:00:00:Z","depth":0,"parameterNumber":2,"parameterNumberName":"U-component_of_WINDS"},"data":[0,0,0,0,0,0,0,0,0,0,0,0,0,0,0,0,0,0,0,0,0,0,0,0,0,0,0,0,0,0,0,0,0,0,0,0,0,0,0,0,0,0,0,0,0,0,0,0,0,0,0,0,0,0,0,0,0,0,4.3274,4.3275,0,4.3331,4.3332,4.3332,4.3288,4.3286,4.3284,4.3282,4.3343,4.3346,4.3349,0,0,0,0,0,0,0,0,0,0,0,0,0,4.3132,4.3135,4.3274,4.3275,4.3276,4.3331,4.3332,4.3332,4.3288,4.3286,4.3284,4.3282,4.3342,4.3346,4.335,0,0,0,0,0,0,0,0,0,0,0,0,0,4.3192,4.3136,4.3274,4.326,4.326,4.3331,4.3332,4.3333,4.3289,4.3286,4.3283,4.328,4.334,4.3345,4.335,4.3439,0,0,4.3366,4.3368,0,0,0,0,0,0,0,0,4.3189,4.3197,4.3262,4.3261,4.3261,4.3299,4.3304,4.3368,4.329,4.3278,4.3282,4.3279,4.3331,4.3336,4.3353,4.3441,4.3444,4.3366,4.3369,4.3371,4.3373,0,0,0,0,0,0,0,4.3184,4.3195,4.3297,4.3263,4.3262,4.3253,4.3258,4.3316,4.332,4.3279,4.3276,4.3283,4.333,4.3349,4.3354,4.3445,4.3366,4.337,4.3374,4.3376,4.3612,4.3615,0,0,0,0,0,0,4.3181,4.3191,4.3295,4.3299,4.3217,4.3258,4.3263,4.329,4.3319,4.3321,4.3285,4.328,4.3341,4.3349,4.3356,4.3464,4.3371,4.3376,4.3379,4.3608,4.3612,4.3616,0,0,0,0,0,0,4.3178,4.3191,4.3293,4.3244,4.3256,4.3263,4.3293,4.3293,4.3311,4.3324,4.3325,4.3303,4.3339,4.3349,4.3419,4.3465,4.3378,4.3383,4.3605,4.361,4.3614,4.3678,0,0,0,0,0,0,4.3174,4.319,4.3223,4.3245,4.3259,4.3353,4.3296,4.3296,4.332,4.3314,4.3341,4.3343,4.3338,4.3412,4.3424,4.3471,4.3387,4.36,4.3607,4.3613,4.3672,4.3685,4.3696,0,0,0,0,0,4.317,4.3238,4.3225,4.3237,4.33,4.3356,4.3364,4.3357,4.3324,4.3357,4.3366,4.3342,4.3458,4.3419,4.3433,4.3482,4.3598,4.3605,4.3612,4.3667,4.3682,4.3695,0,0,0,0,0,0,4.3221,4.3241,4.3226,4.3304,4.3329,4.3348,4.339,4.3373,4.3408,4.3401,4.3391,4.3398,4.3472,4.3483,4.344,4.357,4.3523,4.3533,4.356,4.3575,4.3586,4.3582,4.3391,0,0,0,0,0,4.3242,4.3285,4.33,4.3367,4.3381,4.3384,4.3408,4.34,4.3426,4.3436,4.3449,4.3476,4.3519,4.3547,4.3587,4.3674,4.368,4.3714,4.3726,4.3735,4.3745,4.3794,4.381,4.364,4.364,4.3639,0,0,4.3284,4.3301,4.3328,4.3378,4.3396,4.3443,4.3393,4.3443,4.3478,4.3444,4.3511,4.3522,4.3551,4.3631,4.3666,4.3643,4.3793,4.3745,4.3752,4.3756,4.3803,4.3819,4.3834,4.3645,4.3644,4.3643,0,0,4.3386,4.3402,4.3461,4.3481,4.3509,4.3511,4.3525,4.3549,4.3555,4.3622,4.3598,4.364,4.3713,4.3736,4.3757,4.387,4.385,4.3883,4.3945,4.3993,4.4007,4.4018,4.4061,4.4076,4.3892,4.3893,4.3893,0,4.3436,4.3504,4.3494,4.3547,4.3571,4.3542,4.3603,4.3623,4.3663,4.3681,4.3654,4.3747,4.3764,4.385,4.3878,4.3895,4.3913,4.388,4.4005,4.4017,4.4028,4.4069,4.4084,4.3897,4.3896,4.3896,4.3895,0,4.3565,4.3612,4.3657,4.3697,4.3725,4.3782,4.3782,4.3813,4.3803,4.3809,4.3879,4.3899,4.3944,4.3964,4.3954,4.4049,4.4034,4.4006,4.3958,4.4049,4.4086,4.4102,4.3902,4.3901,4.39,4.3899,0,0,4.37,4.3735,4.3752,4.377,4.3801,4.3838,4.3895,4.3938,4.3966,4.3995,4.4044,4.4107,4.4083,4.4107,4.41,4.4143,4.4234,4.411,4.4111,4.4134,4.4342,4.4363,4.4381,4.4221,4.4224,4.4226,4.434,0,4.3805,4.3902,4.3896,4.3988,4.4034,4.4008,4.4058,4.4083,4.409,4.4131,4.4139,4.4185,4.4148,4.4163,4.4204,4.4214,4.4276,4.4206,4.4268,4.427,4.4262,4.4401,4.4423,4.4529,4.4355,4.4357,4.4359,0,4.3939,4.3974,4.4071,4.4097,4.4116,4.416,4.4201,4.4239,4.4268,4.4271,4.4299,4.4286,4.4345,4.4296,4.4379,4.4331,4.4356,4.4366,4.437,4.4376,4.4321,4.4412,4.4563,4.458,4.4382,4.438,4.4378,0,4.4031,4.4101,4.4169,4.4186,4.4217,4.425,4.4265,4.429,4.4318,4.4354,4.4372,4.4414,4.4438,4.4472,4.4472,4.4435,4.4557,4.4506,4.4562,4.4562,4.4589,4.4588,4.4748,4.4604,4.4603,4.4603,4.4603,0,4.4149,4.421,4.4211,4.4253,4.4321,4.4315,4.4383,4.4394,4.4418,4.4463,4.4444,4.4487,4.4483,4.4527,4.4527,4.4597,4.4608,4.4613,4.4613,4.4615,4.4615,4.4632,4.4626,4.4607,4.4606,4.4605,4.4605,0,4.4263,4.4266,4.4339,4.4363,4.437,4.442,4.4441,4.4482,4.4488,4.4545,4.4559,4.4568,4.4619,4.4623,4.4681,4.4682,4.4767,4.4758,4.4758,4.4756,4.4813,4.4808,4.499,4.5015,4.4853,4.4855,4.4856,0,4.4339,4.4385,4.4415,4.4444,4.446,4.4506,4.4534,4.453,4.456,4.4598,4.4635,4.4684,4.4723,4.4806,4.482,4.4865,4.4858,4.4919,4.4865,4.4867,4.4861,4.4859,4.4865,4.493,4.4932,4.4933,4.4934,0,4.4474,4.4474,4.4515,4.4557,4.4591,4.4624,4.4655,4.468,4.4679,4.4715,4.4767,4.4797,4.4858,4.4908,4.4953,4.4969,4.4953,4.4951,4.4967,4.4971,4.4969,4.4973,4.4788,4.4947,4.4946,4.4945,4.4944,4.4944,4.4573,4.4614,4.4642,4.4689,4.4711,4.4741,4.4781,4.4793,4.4835,4.4884,4.4879,4.4938,4.4968,4.5026,4.5047,4.5093,4.5073,4.5095,4.5101,4.5107,4.5114,4.4961,4.5101,4.5101,4.5101,4.51,4.51,0,4.4709,4.4726,4.4769,4.4813,4.4851,4.4831,4.4865,4.4898,4.4949,4.4978,4.5017,4.5078,4.5127,4.5145,4.5193,4.5227,4.5221,4.524,4.5238,4.5243,4.5128,4.5111,4.5244,4.5244,4.5244,4.5244,4.5244,4.5244,4.4784,4.4854,4.4857,4.4938,4.4955,4.5011,4.5032,4.5061,4.5084,4.5153,4.5193,4.5204,4.5229,4.5279,4.5324,4.5328,4.5348,4.537,4.5372,4.5265,4.525,4.5237,4.522,4.5374,4.5374,4.5482,4.5483,4.5484]},{"header":{"parameterUnit":"m.s-1","parameterCategory":1,"la1":30.2991,"la2":30.254,"lo1":-89.0895,"lo2":-89.0444,"dy":0.0017,"dx":0.0017,"nx":28,"ny":28,"refTime":"2023-08-15T21:00:00:Z","depth":0,"parameterNumber":3,"parameterNumberName":"V-component_of_WINDS"},"data":[0,0,0,0,0,0,0,0,0,0,0,0,0,0,0,0,0,0,0,0,0,0,0,0,0,0,0,0,0,0,0,0,0,0,0,0,0,0,0,0,0,0,0,0,0,0,0,0,0,0,0,0,0,0,0,0,0,0,-1.1093,-1.1093,0,-1.112,-1.112,-1.1121,-1.1138,-1.1138,-1.1138,-1.1138,-1.1166,-1.1166,-1.1167,0,0,0,0,0,0,0,0,0,0,0,0,0,-1.1057,-1.1057,-1.1093,-1.1093,-1.1094,-1.112,-1.112,-1.1121,-1.1138,-1.1138,-1.1138,-1.1138,-1.1165,-1.1166,-1.1167,0,0,0,0,0,0,0,0,0,0,0,0,0,-1.1077,-1.1058,-1.1093,-1.1105,-1.1107,-1.112,-1.112,-1.1121,-1.1138,-1.1138,-1.1138,-1.1138,-1.1165,-1.1166,-1.1167,-1.117,0,0,-1.117,-1.117,0,0,0,0,0,0,0,0,-1.1076,-1.1078,-1.1103,-1.1105,-1.1106,-1.1126,-1.1118,-1.1137,-1.1138,-1.1126,-1.1138,-1.1138,-1.1152,-1.1154,-1.1159,-1.1171,-1.1172,-1.117,-1.1171,-1.1171,-1.1171,0,0,0,0,0,0,0,-1.1074,-1.1077,-1.1104,-1.1104,-1.1105,-1.111,-1.1113,-1.1121,-1.1138,-1.1127,-1.1128,-1.1131,-1.1153,-1.1158,-1.116,-1.1173,-1.117,-1.1171,-1.1171,-1.1172,-1.119,-1.119,0,0,0,0,0,0,-1.1071,-1.1076,-1.1103,-1.1104,-1.1091,-1.111,-1.1114,-1.1119,-1.1138,-1.1141,-1.1131,-1.1132,-1.1156,-1.1159,-1.1161,-1.1166,-1.1171,-1.1172,-1.1172,-1.119,-1.119,-1.119,0,0,0,0,0,0,-1.107,-1.1073,-1.1102,-1.1091,-1.1095,-1.1111,-1.1117,-1.112,-1.1125,-1.1141,-1.1144,-1.1133,-1.1157,-1.1159,-1.1168,-1.1167,-1.1172,-1.1173,-1.119,-1.119,-1.119,-1.1177,0,0,0,0,0,0,-1.1069,-1.1073,-1.1074,-1.1091,-1.1095,-1.1108,-1.1117,-1.112,-1.1126,-1.1128,-1.1144,-1.1146,-1.1157,-1.1166,-1.1169,-1.1169,-1.1174,-1.119,-1.119,-1.119,-1.1177,-1.1176,-1.1175,0,0,0,0,0,-1.1068,-1.1068,-1.1074,-1.1077,-1.1097,-1.1108,-1.111,-1.1122,-1.1126,-1.1128,-1.1138,-1.1146,-1.1167,-1.1167,-1.117,-1.117,-1.119,-1.119,-1.119,-1.1178,-1.1176,-1.1175,0,0,0,0,0,0,-1.1051,-1.1071,-1.1077,-1.1083,-1.1094,-1.1111,-1.1113,-1.112,-1.113,-1.1131,-1.1145,-1.1149,-1.1156,-1.1164,-1.1164,-1.1175,-1.118,-1.118,-1.1169,-1.1168,-1.1167,-1.1165,-1.1175,0,0,0,0,0,-1.1048,-1.1055,-1.1072,-1.1076,-1.1081,-1.1096,-1.1101,-1.111,-1.1121,-1.1126,-1.1137,-1.1148,-1.1158,-1.1163,-1.1173,-1.1178,-1.1183,-1.118,-1.1179,-1.1178,-1.1178,-1.1184,-1.1183,-1.1189,-1.1189,-1.1189,0,0,-1.1041,-1.1053,-1.1057,-1.1073,-1.1082,-1.109,-1.11,-1.1107,-1.1113,-1.1127,-1.1136,-1.1145,-1.1158,-1.1166,-1.1169,-1.1172,-1.1178,-1.1178,-1.1177,-1.1178,-1.1183,-1.1183,-1.1182,-1.1189,-1.1189,-1.1189,0,0,-1.1034,-1.1043,-1.1048,-1.1058,-1.1072,-1.1082,-1.1083,-1.1099,-1.1106,-1.1115,-1.1126,-1.1134,-1.1149,-1.1159,-1.1166,-1.1164,-1.1172,-1.1166,-1.1161,-1.1166,-1.1165,-1.1165,-1.1165,-1.1165,-1.1166,-1.1166,-1.1166,0,-1.1024,-1.1036,-1.1049,-1.1057,-1.1064,-1.1078,-1.1083,-1.1092,-1.1108,-1.1113,-1.1116,-1.1137,-1.1146,-1.1157,-1.1157,-1.1162,-1.1164,-1.1164,-1.1164,-1.1164,-1.1164,-1.1164,-1.1164,-1.1166,-1.1166,-1.1166,-1.1166,0,-1.1024,-1.1032,-1.1035,-1.1051,-1.1058,-1.1064,-1.1079,-1.1085,-1.1094,-1.1104,-1.1114,-1.1126,-1.1139,-1.1142,-1.115,-1.1154,-1.1156,-1.1161,-1.1167,-1.1162,-1.1163,-1.1163,-1.1165,-1.1165,-1.1165,-1.1165,0,0,-1.1006,-1.103,-1.1031,-1.1039,-1.1057,-1.1064,-1.1071,-1.1084,-1.1089,-1.11,-1.1108,-1.1121,-1.1127,-1.1135,-1.1144,-1.1148,-1.1147,-1.1153,-1.1154,-1.1152,-1.1154,-1.115,-1.115,-1.1152,-1.1153,-1.1153,-1.1153,0,-1.1002,-1.1015,-1.1028,-1.1038,-1.1046,-1.106,-1.1067,-1.1079,-1.1089,-1.1097,-1.1108,-1.1118,-1.1125,-1.113,-1.1134,-1.1146,-1.1148,-1.1146,-1.116,-1.116,-1.1156,-1.115,-1.1146,-1.1145,-1.1153,-1.1153,-1.1153,0,-1.0998,-1.101,-1.102,-1.1038,-1.1042,-1.1048,-1.1061,-1.107,-1.1084,-1.1091,-1.11,-1.111,-1.112,-1.1124,-1.1138,-1.1136,-1.1143,-1.115,-1.115,-1.1152,-1.1157,-1.1152,-1.1146,-1.1146,-1.1154,-1.1154,-1.1154,0,-1.0985,-1.1003,-1.1012,-1.1018,-1.1039,-1.1043,-1.1052,-1.1066,-1.1074,-1.1086,-1.1091,-1.1104,-1.1111,-1.1121,-1.1134,-1.1136,-1.1147,-1.1152,-1.1154,-1.1153,-1.1155,-1.1155,-1.115,-1.1159,-1.1159,-1.1159,-1.1159,0,-1.0979,-1.0985,-1.1006,-1.1012,-1.1019,-1.1034,-1.1042,-1.1052,-1.1065,-1.1073,-1.1086,-1.1093,-1.111,-1.112,-1.1131,-1.1141,-1.1144,-1.1151,-1.1153,-1.115,-1.1149,-1.1154,-1.1155,-1.1159,-1.1159,-1.1159,-1.1159,0,-1.0965,-1.0979,-1.099,-1.101,-1.1015,-1.102,-1.1036,-1.1043,-1.1054,-1.1064,-1.1068,-1.1085,-1.1097,-1.1112,-1.1129,-1.1136,-1.1146,-1.115,-1.1141,-1.1143,-1.1144,-1.1144,-1.1142,-1.1143,-1.115,-1.115,-1.115,0,-1.096,-1.0965,-1.0986,-1.0992,-1.1001,-1.1011,-1.1019,-1.1035,-1.1043,-1.106,-1.1065,-1.1078,-1.109,-1.1109,-1.1123,-1.1137,-1.1142,-1.114,-1.1144,-1.114,-1.1142,-1.1142,-1.1143,-1.1139,-1.1139,-1.1139,-1.1139,0,-1.0951,-1.0958,-1.0969,-1.0983,-1.0992,-1.1004,-1.1016,-1.1021,-1.1039,-1.1048,-1.1061,-1.107,-1.1088,-1.1101,-1.1117,-1.1127,-1.1136,-1.1138,-1.1139,-1.1135,-1.113,-1.1134,-1.1139,-1.1137,-1.1138,-1.1138,-1.1138,-1.1138,-1.0942,-1.0948,-1.0963,-1.0976,-1.0987,-1.0998,-1.1005,-1.1018,-1.1029,-1.1045,-1.1054,-1.1067,-1.1082,-1.1104,-1.1114,-1.1125,-1.1128,-1.1129,-1.113,-1.113,-1.1129,-1.1128,-1.1128,-1.1128,-1.1128,-1.1128,-1.1128,0,-1.0934,-1.0945,-1.0956,-1.0973,-1.0983,-1.0992,-1.1006,-1.1014,-1.1025,-1.1039,-1.105,-1.1066,-1.108,-1.1096,-1.1111,-1.1116,-1.1121,-1.112,-1.112,-1.1122,-1.1125,-1.1123,-1.1116,-1.1116,-1.1116,-1.1116,-1.1116,-1.1116,-1.0931,-1.0942,-1.0951,-1.0967,-1.0979,-1.0992,-1.0999,-1.101,-1.1021,-1.1038,-1.105,-1.106,-1.1075,-1.1092,-1.1105,-1.1109,-1.1115,-1.1112,-1.1118,-1.1121,-1.1122,-1.1123,-1.1121,-1.1113,-1.1113,-1.1114,-1.1114,-1.1114]}]]